| time (UTC) | temp F | wind direction | speed MPH | gust MPH | rain 1hr in | rain 24hr in | rain mn in | humidity % | barometer mb |
| 20260506215525 | 58 | 211 | 0.0 | 7.0 | 0.01 | 0.04 | 0.04 | 91 | 1005.9 |
| 20260506215023 | 58 | 193 | 1.0 | 9.0 | 0.01 | 0.04 | 0.04 | 91 | 1006.0 |
| 20260506214520 | 58 | 197 | 2.0 | 9.0 | 0.01 | 0.04 | 0.04 | 90 | 1006.3 |
| 20260506214019 | 58 | 151 | 2.0 | 8.0 | 0.02 | 0.04 | 0.04 | 90 | 1006.1 |
| 20260506213518 | 58 | 162 | 1.0 | 5.0 | 0.02 | 0.04 | 0.04 | 90 | 1006.2 |
| 20260506213018 | 58 | 192 | 1.0 | 7.0 | 0.02 | 0.04 | 0.04 | 90 | 1006.2 |
| 20260506212516 | 58 | 181 | 2.0 | 7.0 | 0.02 | 0.04 | 0.04 | 90 | 1006.2 |
| 20260506212016 | 58 | 184 | 3.0 | 7.0 | 0.02 | 0.04 | 0.04 | 90 | 1006.3 |
| 20260506211514 | 58 | 198 | 2.0 | 6.0 | 0.01 | 0.03 | 0.03 | 89 | 1006.4 |
| 20260506211015 | 58 | 203 | 1.0 | 6.0 | 0.01 | 0.03 | 0.03 | 89 | 1006.4 |
| 20260506210517 | 58 | 178 | 1.0 | 6.0 | 0.01 | 0.03 | 0.03 | 89 | 1006.4 |
| 20260506210015 | 58 | 228 | 2.0 | 6.0 | 0.01 | 0.03 | 0.03 | 89 | 1006.4 |
| 20260506205512 | 59 | 167 | 2.0 | 6.0 | 0.01 | 0.03 | 0.03 | 89 | 1006.5 |
| 20260506205012 | 59 | 230 | 1.0 | 6.0 | 0.01 | 0.03 | 0.03 | 89 | 1006.5 |
| 20260506204512 | 59 | 206 | 3.0 | 6.0 | 0.01 | 0.03 | 0.03 | 88 | 1006.6 |
| 20260506204011 | 59 | 183 | 1.0 | 8.0 | 0.00 | 0.02 | 0.02 | 88 | 1006.5 |
| 20260506203517 | 59 | 201 | 3.0 | 11.0 | 0.00 | 0.02 | 0.02 | 87 | 1006.7 |
| 20260506203011 | 59 | 200 | 2.0 | 11.0 | 0.01 | 0.02 | 0.02 | 87 | 1006.6 |
| 20260506202510 | 59 | 187 | 2.0 | 7.0 | 0.01 | 0.02 | 0.02 | 87 | 1006.6 |
| 20260506202009 | 60 | 185 | 2.0 | 12.0 | 0.02 | 0.02 | 0.02 | 87 | 1006.7 |
| 20260506201509 | 60 | 172 | 2.0 | 12.0 | 0.02 | 0.02 | 0.02 | 87 | 1006.7 |
| 20260506201008 | 60 | 195 | 2.0 | 6.0 | 0.02 | 0.02 | 0.02 | 87 | 1006.7 |
| 20260506200512 | 60 | 207 | 2.0 | 10.0 | 0.02 | 0.02 | 0.02 | 87 | 1006.7 |
| 20260506200008 | 60 | 211 | 3.0 | 10.0 | 0.02 | 0.02 | 0.02 | 87 | 1006.7 |
| 20260506195507 | 60 | 196 | 2.0 | 6.0 | 0.02 | 0.02 | 0.02 | 87 | 1006.8 |
| 20260506195007 | 60 | 185 | 2.0 | 6.0 | 0.02 | 0.02 | 0.02 | 87 | 1007.0 |
| 20260506194514 | 60 | 185 | 3.0 | 5.0 | 0.02 | 0.02 | 0.02 | 87 | 1006.9 |
| 20260506194007 | 60 | 203 | 1.0 | 8.0 | 0.02 | 0.02 | 0.02 | 87 | 1006.8 |
| 20260506193505 | 60 | 189 | 2.0 | 8.0 | 0.02 | 0.02 | 0.02 | 86 | 1007.0 |
| 20260506193005 | 61 | 188 | 1.0 | 7.0 | 0.01 | 0.01 | 0.01 | 85 | 1006.9 |
| 20260506192509 | 61 | 182 | 3.0 | 9.0 | 0.01 | 0.01 | 0.01 | 84 | 1007.0 |
| 20260506192008 | 61 | 188 | 5.0 | 9.0 | 0.00 | 0.00 | 0.00 | 83 | 1007.0 |
| 20260506191505 | 62 | 202 | 2.0 | 8.0 | 0.00 | 0.00 | 0.00 | 82 | 1006.9 |
| 20260506191005 | 62 | 207 | 3.0 | 14.0 | 0.00 | 0.00 | 0.00 | 81 | 1007.0 |
| 20260506190505 | 63 | 197 | 4.0 | 14.0 | 0.00 | 0.00 | 0.00 | 79 | 1007.1 |
| 20260506190006 | 63 | 208 | 4.0 | 12.0 | 0.00 | 0.00 | 0.00 | 78 | 1007.1 |
| 20260506185503 | 63 | 160 | 3.0 | 12.0 | 0.00 | 0.00 | 0.00 | 77 | 1007.1 |
| 20260506185003 | 64 | 209 | 4.0 | 11.0 | 0.00 | 0.00 | 0.00 | 76 | 1007.2 |
| 20260506184503 | 64 | 187 | 5.0 | 11.0 | 0.00 | 0.00 | 0.00 | 76 | 1007.3 |
| 20260506184003 | 64 | 176 | 4.0 | 12.0 | 0.00 | 0.00 | 0.00 | 75 | 1007.2 |
| 20260506183503 | 65 | 176 | 4.0 | 12.0 | 0.00 | 0.00 | 0.00 | 75 | 1007.1 |
| 20260506183003 | 65 | 181 | 4.0 | 12.0 | 0.00 | 0.00 | 0.00 | 74 | 1007.2 |
| 20260506182502 | 65 | 278 | 3.0 | 12.0 | 0.00 | 0.00 | 0.00 | 74 | 1007.2 |
| 20260506182002 | 66 | 185 | 3.0 | 12.0 | 0.00 | 0.00 | 0.00 | 74 | 1007.5 |
| 20260506181502 | 66 | 192 | 3.0 | 8.0 | 0.00 | 0.00 | 0.00 | 73 | 1007.6 |
| 20260506181003 | 66 | 190 | 3.0 | 8.0 | 0.00 | 0.00 | 0.00 | 73 | 1007.5 |
| 20260506180504 | 66 | 218 | 2.0 | 10.0 | 0.00 | 0.00 | 0.00 | 73 | 1007.6 |
| 20260506180001 | 66 | 211 | 4.0 | 15.0 | 0.00 | 0.00 | 0.00 | 73 | 1007.5 |
| 20260506175559 | 66 | 165 | 7.0 | 15.0 | 0.00 | 0.00 | 0.00 | 72 | 1007.6 |
| 20260506175103 | 67 | 197 | 5.0 | 10.0 | 0.00 | 0.00 | 0.00 | 72 | 1007.6 |
| 20260506174601 | 67 | 266 | 4.0 | 11.0 | 0.00 | 0.00 | 0.00 | 72 | 1007.6 |
| 20260506174100 | 67 | 164 | 5.0 | 11.0 | 0.00 | 0.00 | 0.00 | 71 | 1007.8 |
| 20260506173558 | 68 | 195 | 3.0 | 11.0 | 0.00 | 0.00 | 0.00 | 71 | 1007.9 |
| 20260506173059 | 68 | 196 | 3.0 | 11.0 | 0.00 | 0.00 | 0.00 | 71 | 1007.9 |
| 20260506172557 | 68 | 197 | 5.0 | 11.0 | 0.00 | 0.00 | 0.00 | 70 | 1008.1 |
| 20260506172055 | 68 | 157 | 4.0 | 13.0 | 0.00 | 0.00 | 0.00 | 70 | 1008.4 |
| 20260506171601 | 68 | 202 | 5.0 | 13.0 | 0.00 | 0.00 | 0.00 | 70 | 1008.2 |
| 20260506171056 | 68 | 214 | 5.0 | 11.0 | 0.00 | 0.00 | 0.00 | 70 | 1008.2 |
| 20260506170554 | 69 | 169 | 3.0 | 11.0 | 0.00 | 0.00 | 0.00 | 70 | 1008.0 |
| 20260506170105 | 69 | 173 | 5.0 | 11.0 | 0.00 | 0.00 | 0.00 | 69 | 1007.8 |
| 20260506165555 | 69 | 176 | 3.0 | 10.0 | 0.00 | 0.00 | 0.00 | 70 | 1008.2 |
| 20260506165054 | 69 | 197 | 5.0 | 10.0 | 0.00 | 0.00 | 0.00 | 69 | 1008.1 |
| 20260506164557 | 69 | 204 | 3.0 | 10.0 | 0.00 | 0.00 | 0.00 | 69 | 1008.0 |
| 20260506164053 | 69 | 173 | 4.0 | 10.0 | 0.00 | 0.00 | 0.00 | 69 | 1008.1 |
| 20260506163551 | 68 | 180 | 3.0 | 11.0 | 0.00 | 0.00 | 0.00 | 70 | 1008.6 |
| 20260506163110 | 68 | 214 | 4.0 | 11.0 | 0.00 | 0.00 | 0.00 | 70 | 1008.5 |
| 20260506162550 | 68 | 201 | 3.0 | 8.0 | 0.00 | 0.00 | 0.00 | 70 | 1008.6 |
| 20260506162053 | 68 | 166 | 3.0 | 9.0 | 0.00 | 0.00 | 0.00 | 70 | 1008.6 |
| 20260506161550 | 68 | 164 | 4.0 | 9.0 | 0.00 | 0.00 | 0.00 | 70 | 1008.7 |
| 20260506161049 | 68 | 197 | 5.0 | 12.0 | 0.00 | 0.00 | 0.00 | 69 | 1008.7 |
| 20260506160548 | 68 | 199 | 4.0 | 12.0 | 0.00 | 0.00 | 0.00 | 69 | 1008.8 |
| 20260506160049 | 69 | 162 | 3.0 | 11.0 | 0.00 | 0.00 | 0.00 | 68 | 1009.0 |
| 20260506155549 | 69 | 185 | 4.0 | 9.0 | 0.00 | 0.00 | 0.00 | 68 | 1008.8 |
| 20260506155046 | 70 | 190 | 2.0 | 9.0 | 0.00 | 0.00 | 0.00 | 68 | 1008.8 |
| 20260506154606 | 70 | 198 | 3.0 | 9.0 | 0.00 | 0.00 | 0.00 | 67 | 1009.0 |
| 20260506154044 | 70 | 187 | 3.0 | 9.0 | 0.00 | 0.00 | 0.00 | 67 | 1009.0 |
| 20260506153544 | 69 | 198 | 3.0 | 9.0 | 0.00 | 0.00 | 0.00 | 68 | 1009.0 |
| 20260506153050 | 69 | 180 | 3.0 | 9.0 | 0.00 | 0.00 | 0.00 | 69 | 1009.1 |
| 20260506152542 | 69 | 218 | 1.0 | 8.0 | 0.00 | 0.00 | 0.00 | 70 | 1009.0 |
| 20260506152040 | 68 | 211 | 3.0 | 10.0 | 0.00 | 0.00 | 0.00 | 70 | 1009.1 |
| 20260506151540 | 68 | 192 | 3.0 | 10.0 | 0.00 | 0.00 | 0.00 | 69 | 1009.2 |
| 20260506151039 | 69 | 202 | 2.0 | 7.0 | 0.00 | 0.00 | 0.00 | 69 | 1009.1 |
| 20260506150538 | 68 | 166 | 2.0 | 10.0 | 0.00 | 0.00 | 0.00 | 70 | 1009.1 |
| 20260506150038 | 68 | 180 | 3.0 | 10.0 | 0.00 | 0.00 | 0.00 | 70 | 1009.3 |
| 20260506145536 | 68 | 204 | 2.0 | 6.0 | 0.00 | 0.00 | 0.00 | 71 | 1009.2 |
| 20260506145035 | 67 | 192 | 2.0 | 8.0 | 0.00 | 0.00 | 0.00 | 71 | 1009.3 |
| 20260506144535 | 67 | 196 | 3.0 | 11.0 | 0.00 | 0.00 | 0.00 | 71 | 1009.2 |
| 20260506144035 | 67 | 180 | 3.0 | 11.0 | 0.00 | 0.00 | 0.00 | 71 | 1009.2 |
| 20260506143539 | 67 | 169 | 3.0 | 9.0 | 0.00 | 0.00 | 0.00 | 71 | 1009.2 |
| 20260506143046 | 67 | 174 | 2.0 | 6.0 | 0.00 | 0.00 | 0.00 | 72 | 1009.3 |
| 20260506142536 | 67 | 185 | 3.0 | 9.0 | 0.00 | 0.00 | 0.00 | 72 | 1009.3 |
| 20260506142034 | 66 | 235 | 3.0 | 9.0 | 0.00 | 0.00 | 0.00 | 72 | 1009.3 |
| 20260506141536 | 67 | 173 | 2.0 | 9.0 | 0.00 | 0.00 | 0.00 | 71 | 1009.3 |
| 20260506141034 | 67 | 14 | 2.0 | 7.0 | 0.00 | 0.00 | 0.00 | 72 | 1009.4 |
| 20260506140530 | 66 | 189 | 2.0 | 7.0 | 0.00 | 0.00 | 0.00 | 74 | 1009.2 |
| 20260506140030 | 66 | 233 | 1.0 | 11.0 | 0.00 | 0.00 | 0.00 | 73 | 1009.0 |
| 20260506135528 | 65 | 188 | 3.0 | 11.0 | 0.00 | 0.00 | 0.00 | 73 | 1009.0 |
| 20260506135028 | 65 | 218 | 1.0 | 8.0 | 0.00 | 0.00 | 0.00 | 74 | 1009.2 |
| 20260506134527 | 66 | 197 | 3.0 | 8.0 | 0.00 | 0.00 | 0.00 | 73 | 1009.3 |
| 20260506134027 | 65 | 196 | 2.0 | 8.0 | 0.00 | 0.00 | 0.00 | 73 | 1009.3 |
| 20260506133525 | 65 | 185 | 3.0 | 7.0 | 0.00 | 0.00 | 0.00 | 74 | 1009.3 |
| 20260506133024 | 65 | 187 | 2.0 | 8.0 | 0.00 | 0.00 | 0.00 | 75 | 1009.4 |
| 20260506132524 | 65 | 165 | 2.0 | 8.0 | 0.00 | 0.00 | 0.00 | 76 | 1009.7 |
| 20260506132024 | 64 | 212 | 3.0 | 6.0 | 0.00 | 0.00 | 0.00 | 76 | 1009.7 |
| 20260506131523 | 64 | 183 | 3.0 | 6.0 | 0.00 | 0.00 | 0.00 | 76 | 1009.7 |
| 20260506131023 | 64 | 249 | 1.0 | 11.0 | 0.00 | 0.00 | 0.00 | 77 | 1009.6 |
| 20260506130519 | 63 | 197 | 2.0 | 11.0 | 0.00 | 0.00 | 0.00 | 77 | 1009.6 |
| 20260506130022 | 63 | 197 | 2.0 | 6.0 | 0.00 | 0.00 | 0.00 | 78 | 1009.7 |
| 20260506125517 | 63 | 200 | 1.0 | 6.0 | 0.00 | 0.00 | 0.00 | 79 | 1009.8 |
| 20260506125016 | 63 | 195 | 2.0 | 7.0 | 0.00 | 0.00 | 0.00 | 79 | 1009.6 |
| 20260506124516 | 63 | 204 | 3.0 | 7.0 | 0.00 | 0.00 | 0.00 | 79 | 1009.7 |
| 20260506124015 | 62 | 188 | 1.0 | 7.0 | 0.00 | 0.00 | 0.00 | 80 | 1009.6 |
| 20260506123514 | 62 | 211 | 2.0 | 7.0 | 0.00 | 0.00 | 0.00 | 80 | 1009.7 |
| 20260506123014 | 62 | 198 | 2.0 | 9.0 | 0.00 | 0.00 | 0.00 | 80 | 1009.6 |
| 20260506122513 | 62 | 184 | 3.0 | 9.0 | 0.00 | 0.00 | 0.00 | 81 | 1009.5 |
| 20260506122012 | 61 | 205 | 2.0 | 7.0 | 0.00 | 0.00 | 0.00 | 81 | 1009.6 |
| 20260506121511 | 61 | 141 | 1.0 | 7.0 | 0.00 | 0.00 | 0.00 | 82 | 1009.6 |
| 20260506121011 | 61 | 199 | 1.0 | 5.0 | 0.00 | 0.00 | 0.00 | 82 | 1009.8 |
| 20260506120511 | 60 | 189 | 1.0 | 7.0 | 0.00 | 0.00 | 0.00 | 83 | 1009.8 |
| 20260506120010 | 60 | 199 | 3.0 | 7.0 | 0.00 | 0.00 | 0.00 | 83 | 1009.9 |
| 20260506115510 | 59 | 180 | 1.0 | 7.0 | 0.00 | 0.00 | 0.00 | 84 | 1009.9 |
| 20260506115009 | 59 | 194 | 2.0 | 7.0 | 0.00 | 0.00 | 0.00 | 84 | 1010.0 |
| 20260506114511 | 59 | 194 | 2.0 | 5.0 | 0.00 | 0.00 | 0.00 | 84 | 1010.0 |
| 20260506114009 | 59 | 191 | 2.0 | 5.0 | 0.00 | 0.00 | 0.00 | 84 | 1010.1 |
| 20260506113509 | 60 | 189 | 2.0 | 6.0 | 0.00 | 0.00 | 0.00 | 84 | 1010.2 |
| 20260506113009 | 59 | 233 | 1.0 | 6.0 | 0.00 | 0.00 | 0.00 | 84 | 1010.1 |
| 20260506112511 | 59 | 221 | 2.0 | 6.0 | 0.00 | 0.00 | 0.00 | 85 | 1010.1 |
| 20260506112008 | 59 | 169 | 1.0 | 6.0 | 0.00 | 0.00 | 0.00 | 85 | 1010.1 |
| 20260506111508 | 59 | 207 | 1.0 | 6.0 | 0.00 | 0.00 | 0.00 | 85 | 1010.3 |
| 20260506111008 | 58 | 173 | 2.0 | 5.0 | 0.00 | 0.00 | 0.00 | 86 | 1010.2 |
| 20260506110510 | 58 | 199 | 1.0 | 4.0 | 0.00 | 0.00 | 0.00 | 86 | 1010.2 |
| 20260506110008 | 58 | 207 | 0.0 | 5.0 | 0.00 | 0.00 | 0.00 | 86 | 1010.2 |
| 20260506105507 | 58 | 187 | 2.0 | 5.0 | 0.00 | 0.00 | 0.00 | 86 | 1010.1 |
| 20260506105008 | 58 | 193 | 1.0 | 6.0 | 0.00 | 0.00 | 0.00 | 86 | 1010.1 |
| 20260506104506 | 58 | 164 | 1.0 | 6.0 | 0.00 | 0.00 | 0.00 | 86 | 1010.0 |
| 20260506104005 | 58 | 183 | 1.0 | 6.0 | 0.00 | 0.00 | 0.00 | 86 | 1009.9 |
| 20260506103505 | 58 | 164 | 1.0 | 6.0 | 0.00 | 0.00 | 0.00 | 86 | 1009.8 |
| 20260506103006 | 58 | 198 | 1.0 | 5.0 | 0.00 | 0.00 | 0.00 | 86 | 1009.8 |
| 20260506102505 | 58 | 206 | 0.0 | 5.0 | 0.00 | 0.00 | 0.00 | 86 | 1009.8 |
| 20260506102005 | 58 | 205 | 0.0 | 5.0 | 0.00 | 0.00 | 0.00 | 86 | 1009.9 |
| 20260506101506 | 58 | 195 | 1.0 | 6.0 | 0.00 | 0.00 | 0.00 | 87 | 1009.9 |
| 20260506101005 | 58 | 168 | 1.0 | 6.0 | 0.00 | 0.00 | 0.00 | 87 | 1009.9 |
| 20260506100505 | 58 | 197 | 2.0 | 8.0 | 0.00 | 0.00 | 0.00 | 87 | 1009.8 |
| 20260506100005 | 58 | 197 | 1.0 | 8.0 | 0.00 | 0.00 | 0.00 | 87 | 1009.8 |
| 20260506095505 | 58 | 201 | 2.0 | 5.0 | 0.00 | 0.00 | 0.00 | 87 | 1009.7 |
| 20260506095004 | 58 | 195 | 0.0 | 8.0 | 0.00 | 0.00 | 0.00 | 87 | 1009.7 |
| 20260506094504 | 58 | 190 | 1.0 | 8.0 | 0.00 | 0.00 | 0.00 | 87 | 1009.8 |
| 20260506094003 | 58 | 221 | 1.0 | 6.0 | 0.00 | 0.00 | 0.00 | 87 | 1009.7 |
| 20260506093502 | 58 | 197 | 1.0 | 5.0 | 0.00 | 0.00 | 0.00 | 87 | 1009.7 |
| 20260506093004 | 58 | 209 | 1.0 | 5.0 | 0.00 | 0.00 | 0.00 | 86 | 1009.7 |
| 20260506092502 | 58 | 182 | 1.0 | 4.0 | 0.00 | 0.00 | 0.00 | 86 | 1009.8 |
| 20260506092002 | 58 | 155 | 0.0 | 6.0 | 0.00 | 0.00 | 0.00 | 86 | 1009.8 |
| 20260506091505 | 58 | 206 | 3.0 | 6.0 | 0.00 | 0.00 | 0.00 | 86 | 1009.8 |
| 20260506091000 | 58 | 204 | 1.0 | 5.0 | 0.00 | 0.00 | 0.00 | 86 | 1009.8 |
| 20260506090501 | 58 | 214 | 2.0 | 5.0 | 0.00 | 0.00 | 0.00 | 86 | 1009.8 |
| 20260506090100 | 58 | 190 | 2.0 | 6.0 | 0.00 | 0.00 | 0.00 | 85 | 1009.8 |
| 20260506090002 | 58 | 178 | 2.0 | 6.0 | 0.00 | 0.00 | 0.00 | 85 | 1009.8 |
| 20260506085600 | 58 | 216 | 2.0 | 7.0 | 0.00 | 0.00 | 0.00 | 85 | 1009.9 |
| 20260506085100 | 59 | 202 | 1.0 | 7.0 | 0.00 | 0.00 | 0.00 | 85 | 1010.0 |
| 20260506084602 | 59 | 195 | 3.0 | 7.0 | 0.00 | 0.00 | 0.00 | 85 | 1010.0 |
| 20260506084103 | 59 | 182 | 2.0 | 7.0 | 0.00 | 0.00 | 0.00 | 85 | 1010.0 |
| 20260506083558 | 59 | 237 | 2.0 | 6.0 | 0.00 | 0.00 | 0.00 | 85 | 1010.0 |
| 20260506083104 | 59 | 205 | 1.0 | 7.0 | 0.00 | 0.00 | 0.00 | 85 | 1010.0 |
| 20260506082600 | 59 | 188 | 1.0 | 10.0 | 0.00 | 0.00 | 0.00 | 84 | 1010.1 |
| 20260506082056 | 59 | 180 | 3.0 | 10.0 | 0.00 | 0.00 | 0.00 | 84 | 1010.1 |
| 20260506081556 | 59 | 188 | 2.0 | 9.0 | 0.00 | 0.00 | 0.00 | 84 | 1010.0 |
| 20260506081056 | 59 | 195 | 1.0 | 9.0 | 0.00 | 0.00 | 0.00 | 84 | 1010.1 |
| 20260506080556 | 59 | 209 | 2.0 | 9.0 | 0.00 | 0.00 | 0.00 | 84 | 1010.0 |
| 20260506073053 | 60 | 220 | 2.0 | 6.0 | 0.00 | 0.00 | 0.00 | 83 | 1009.9 |
| 20260506072553 | 60 | 199 | 1.0 | 5.0 | 0.00 | 0.00 | 0.00 | 83 | 1010.0 |
| 20260506072052 | 60 | 180 | 1.0 | 5.0 | 0.00 | 0.00 | 0.00 | 83 | 1009.9 |
| 20260506071551 | 60 | 202 | 1.0 | 8.0 | 0.00 | 0.00 | 0.00 | 83 | 1009.9 |
| 20260506071051 | 60 | 186 | 1.0 | 8.0 | 0.00 | 0.00 | 0.00 | 83 | 1009.8 |
| 20260506070551 | 60 | 203 | 2.0 | 8.0 | 0.00 | 0.00 | 0.00 | 83 | 1009.8 |
| 20260506062049 | 60 | 176 | 2.0 | 9.0 | 0.00 | 0.00 | 0.00 | 82 | 1009.8 |
| 20260506061549 | 60 | 179 | 1.0 | 9.0 | 0.00 | 0.00 | 0.00 | 82 | 1009.8 |
| 20260506061049 | 60 | 188 | 3.0 | 9.0 | 0.00 | 0.00 | 0.00 | 82 | 1009.8 |
| 20260506060549 | 60 | 203 | 3.0 | 11.0 | 0.00 | 0.00 | 0.00 | 81 | 1009.8 |
| 20260506051043 | 60 | 184 | 2.0 | 7.0 | 0.00 | 0.00 | 0.00 | 81 | 1010.2 |
| 20260506050542 | 60 | 190 | 3.0 | 6.0 | 0.00 | 0.00 | 0.00 | 81 | 1010.4 |
| 20260506045041 | 60 | 212 | 2.0 | 6.0 | 0.00 | 0.00 | 0.00 | 80 | 1010.5 |
| 20260506044546 | 60 | 182 | 2.0 | 7.0 | 0.00 | 0.00 | 0.00 | 80 | 1010.6 |
| 20260506044042 | 60 | 183 | 1.0 | 7.0 | 0.00 | 0.00 | 0.00 | 79 | 1010.6 |
| 20260506043539 | 60 | 197 | 2.0 | 6.0 | 0.00 | 0.00 | 0.00 | 79 | 1010.6 |
| 20260506043039 | 60 | 212 | 2.0 | 6.0 | 0.00 | 0.00 | 0.00 | 79 | 1010.5 |
| 20260506042539 | 60 | 194 | 2.0 | 5.0 | 0.00 | 0.00 | 0.00 | 79 | 1010.6 |
| 20260506042037 | 60 | 216 | 1.0 | 8.0 | 0.00 | 0.00 | 0.00 | 78 | 1010.5 |
| 20260506041536 | 60 | 202 | 2.0 | 8.0 | 0.00 | 0.00 | 0.00 | 78 | 1010.4 |
| 20260506041036 | 60 | 187 | 1.0 | 7.0 | 0.00 | 0.00 | 0.00 | 77 | 1010.4 |
| 20260506040534 | 61 | 190 | 2.0 | 7.0 | 0.00 | 0.00 | 0.00 | 76 | 1010.3 |
| 20260506040051 | 61 | 170 | 0.0 | 7.0 | 0.00 | 0.00 | 0.00 | 76 | 1010.3 |
| 20260506035532 | 61 | 176 | 3.0 | 7.0 | 0.00 | 0.00 | 0.00 | 76 | 1010.2 |
| 20260506035032 | 61 | 173 | 2.0 | 6.0 | 0.00 | 0.00 | 0.00 | 75 | 1010.2 |
| 20260506034534 | 61 | 195 | 1.0 | 6.0 | 0.00 | 0.00 | 0.00 | 75 | 1010.3 |
| 20260506034032 | 62 | 196 | 2.0 | 7.0 | 0.00 | 0.00 | 0.00 | 75 | 1010.1 |
| 20260506033531 | 61 | 185 | 2.0 | 7.0 | 0.00 | 0.00 | 0.00 | 75 | 1010.2 |
| 20260506033031 | 61 | 185 | 1.0 | 6.0 | 0.00 | 0.00 | 0.00 | 75 | 1010.0 |
| 20260506032531 | 61 | 220 | 2.0 | 5.0 | 0.00 | 0.00 | 0.00 | 75 | 1010.1 |
| 20260506032033 | 61 | 188 | 1.0 | 4.0 | 0.00 | 0.00 | 0.00 | 75 | 1010.1 |
| 20260506031544 | 61 | 184 | 0.0 | 5.0 | 0.00 | 0.00 | 0.00 | 75 | 1010.0 |
| 20260506031031 | 60 | 187 | 1.0 | 9.0 | 0.00 | 0.00 | 0.00 | 75 | 1010.1 |
| 20260506030530 | 60 | 223 | 1.0 | 9.0 | 0.00 | 0.00 | 0.00 | 75 | 1010.2 |
| 20260506030030 | 60 | 196 | 2.0 | 5.0 | 0.00 | 0.00 | 0.00 | 75 | 1010.2 |
| 20260506025530 | 60 | 203 | 1.0 | 6.0 | 0.00 | 0.00 | 0.00 | 75 | 1010.1 |
| 20260506025030 | 60 | 181 | 1.0 | 6.0 | 0.00 | 0.00 | 0.00 | 74 | 1010.2 |
| 20260506024530 | 60 | 184 | 0.0 | 5.0 | 0.00 | 0.00 | 0.00 | 74 | 1010.2 |
| 20260506024031 | 60 | 201 | 1.0 | 4.0 | 0.00 | 0.00 | 0.00 | 73 | 1010.2 |
| 20260506023531 | 61 | 185 | 2.0 | 5.0 | 0.00 | 0.00 | 0.00 | 73 | 1010.1 |
| 20260506023030 | 61 | 183 | 2.0 | 5.0 | 0.00 | 0.00 | 0.00 | 73 | 1010.1 |
| 20260506022529 | 60 | 216 | 0.0 | 5.0 | 0.00 | 0.00 | 0.00 | 73 | 1010.0 |
| 20260506022029 | 61 | 228 | 0.0 | 5.0 | 0.00 | 0.00 | 0.00 | 72 | 1010.0 |
| 20260506021529 | 61 | 183 | 0.0 | 7.0 | 0.00 | 0.00 | 0.00 | 72 | 1010.0 |
| 20260506021031 | 61 | 172 | 2.0 | 7.0 | 0.00 | 0.00 | 0.00 | 72 | 1010.0 |
| 20260506020532 | 61 | 190 | 1.0 | 5.0 | 0.00 | 0.00 | 0.00 | 71 | 1010.0 |
| 20260506020028 | 61 | 185 | 2.0 | 6.0 | 0.00 | 0.00 | 0.00 | 71 | 1010.0 |
| 20260506015528 | 62 | 196 | 3.0 | 8.0 | 0.00 | 0.00 | 0.00 | 71 | 1010.0 |
| 20260506015028 | 61 | 212 | 2.0 | 8.0 | 0.00 | 0.00 | 0.00 | 71 | 1010.0 |
| 20260506014531 | 61 | 182 | 1.0 | 8.0 | 0.00 | 0.00 | 0.00 | 71 | 1009.9 |
| 20260506014027 | 61 | 193 | 1.0 | 7.0 | 0.00 | 0.00 | 0.00 | 72 | 1009.8 |
| 20260506013527 | 61 | 201 | 2.0 | 7.0 | 0.00 | 0.00 | 0.00 | 71 | 1009.8 |
| 20260506013027 | 61 | 202 | 1.0 | 7.0 | 0.00 | 0.00 | 0.00 | 72 | 1009.8 |
| 20260506012527 | 61 | 213 | 2.0 | 7.0 | 0.00 | 0.00 | 0.00 | 72 | 1009.9 |
| 20260506012029 | 61 | 202 | 2.0 | 6.0 | 0.00 | 0.00 | 0.00 | 72 | 1009.8 |
| 20260506011528 | 61 | 190 | 1.0 | 5.0 | 0.00 | 0.00 | 0.00 | 73 | 1009.7 |
| 20260506011026 | 61 | 171 | 1.0 | 5.0 | 0.00 | 0.00 | 0.00 | 73 | 1009.7 |
| 20260506010526 | 61 | 165 | 1.0 | 5.0 | 0.00 | 0.00 | 0.00 | 73 | 1009.6 |
| 20260506010026 | 61 | 195 | 2.0 | 6.0 | 0.00 | 0.00 | 0.00 | 73 | 1009.6 |
| 20260506005526 | 61 | 185 | 3.0 | 9.0 | 0.00 | 0.00 | 0.00 | 72 | 1009.4 |
| 20260506005024 | 61 | 180 | 3.0 | 9.0 | 0.00 | 0.00 | 0.00 | 73 | 1009.3 |
| 20260506004527 | 61 | 176 | 2.0 | 9.0 | 0.00 | 0.00 | 0.00 | 73 | 1009.3 |
| 20260506004029 | 61 | 216 | 1.0 | 9.0 | 0.00 | 0.00 | 0.00 | 73 | 1009.4 |
| 20260506003524 | 61 | 207 | 2.0 | 7.0 | 0.00 | 0.00 | 0.00 | 73 | 1009.3 |
| 20260506003024 | 61 | 190 | 1.0 | 4.0 | 0.00 | 0.00 | 0.00 | 73 | 1009.3 |
| 20260506002523 | 61 | 202 | 1.0 | 4.0 | 0.00 | 0.00 | 0.00 | 73 | 1009.2 |
| 20260506002024 | 61 | 202 | 1.0 | 4.0 | 0.00 | 0.00 | 0.00 | 73 | 1009.1 |
| 20260506001524 | 61 | 197 | 1.0 | 5.0 | 0.00 | 0.00 | 0.00 | 73 | 1009.1 |
| 20260506001024 | 61 | 195 | 2.0 | 5.0 | 0.00 | 0.00 | 0.00 | 72 | 1009.0 |
| 20260506000523 | 61 | 215 | 0.0 | 4.0 | 0.00 | 0.00 | 0.00 | 72 | 1009.0 |
| 20260506000024 | 61 | 206 | 1.0 | 4.0 | 0.00 | 0.00 | 0.00 | 72 | 1008.8 |
| 20260505235525 | 61 | 211 | 1.0 | 4.0 | 0.00 | 0.00 | 0.00 | 72 | 1008.5 |
| 20260505235022 | 61 | 204 | 1.0 | 4.0 | 0.00 | 0.00 | 0.00 | 73 | 1008.5 |
| 20260505234522 | 61 | 214 | 1.0 | 4.0 | 0.00 | 0.00 | 0.00 | 72 | 1008.3 |
| 20260505234021 | 61 | 204 | 0.0 | 8.0 | 0.00 | 0.00 | 0.00 | 72 | 1008.2 |
| 20260505233521 | 62 | 197 | 2.0 | 8.0 | 0.00 | 0.00 | 0.00 | 71 | 1008.1 |
| 20260505233022 | 62 | 176 | 2.0 | 8.0 | 0.00 | 0.00 | 0.00 | 71 | 1008.0 |
| 20260505232521 | 62 | 190 | 2.0 | 7.0 | 0.00 | 0.00 | 0.00 | 71 | 1008.1 |
| 20260505232022 | 62 | 205 | 2.0 | 9.0 | 0.00 | 0.00 | 0.00 | 71 | 1008.0 |
| 20260505231528 | 62 | 186 | 3.0 | 9.0 | 0.00 | 0.00 | 0.00 | 70 | 1007.9 |
| 20260505231021 | 63 | 203 | 3.0 | 10.0 | 0.00 | 0.00 | 0.00 | 70 | 1008.0 |
| 20260505230520 | 63 | 169 | 4.0 | 10.0 | 0.00 | 0.00 | 0.00 | 69 | 1008.1 |
| 20260505230027 | 63 | 170 | 2.0 | 8.0 | 0.00 | 0.00 | 0.00 | 69 | 1008.1 |
| 20260505225522 | 63 | 180 | 2.0 | 9.0 | 0.00 | 0.00 | 0.00 | 69 | 1008.1 |
| 20260505225020 | 63 | 172 | 2.0 | 9.0 | 0.00 | 0.00 | 0.00 | 68 | 1008.1 |
| 20260505224520 | 64 | 192 | 3.0 | 10.0 | 0.00 | 0.00 | 0.00 | 68 | 1008.1 |
| 20260505224019 | 64 | 263 | 3.0 | 10.0 | 0.00 | 0.00 | 0.00 | 68 | 1008.0 |
| 20260505223525 | 64 | 194 | 2.0 | 7.0 | 0.00 | 0.00 | 0.00 | 68 | 1008.0 |
| 20260505223021 | 64 | 193 | 1.0 | 10.0 | 0.00 | 0.00 | 0.00 | 68 | 1007.9 |
| 20260505222519 | 64 | 180 | 4.0 | 10.0 | 0.00 | 0.00 | 0.00 | 67 | 1007.8 |
| 20260505222019 | 65 | 223 | 2.0 | 7.0 | 0.00 | 0.00 | 0.00 | 67 | 1007.8 |
| 20260505221519 | 65 | 188 | 2.0 | 10.0 | 0.00 | 0.00 | 0.00 | 67 | 1007.7 |
| 20260505221018 | 65 | 204 | 2.0 | 10.0 | 0.00 | 0.00 | 0.00 | 66 | 1007.8 |
| 20260505220518 | 66 | 214 | 2.0 | 8.0 | 0.00 | 0.00 | 0.00 | 66 | 1007.9 |
| 20260505220020 | 66 | 204 | 3.0 | 6.0 | 0.00 | 0.00 | 0.00 | 65 | 1007.8 |